Content
SEND FEEDBACK

Daily
Averages
Monthly
Summary
United States of America

CHESTERFIELD, MISSOURI


Home > North America > United States > Missouri
Elevation: 170 meters     Latitude: 38 41N     Longitude: 090 31W

WEATHER
 
SELECT A DAY
Number of Records: 203,345;   Date Range: 1/1/95 - 7/22/14
 
SHARE

PRINT THIS DATA

[ ← Previous Day ]
WEATHER ALMANAC - 22 FEBRUARY, 2013
[ Next Day → ]
[ °F ]   °C
Weather ElementAverageHighLow
Temperature0.3 °C2.2 °C (8:51 am)-5 °C (11:51 pm)
Dewpoint-3.5 °C-0.6 °C (2:51 am)-8.9 °C (9:51 pm)
Humidity76.2 %92 % (2:51 am)61 % (4:51 pm)
Barometer1014.2 hPa1019.6 hPa (9:51 pm)1009.1 hPa (3:40 am)
Wind Speed15.4 km/h25.9 km/h (2:59 pm)
Wind Gust38.9 km/h (12:51 pm)
Weather ElementAverage
Visibility13.8 km
Wind DirectionWSW (237.5 °)

Weather ElementTotal
Precipitation---
Heating Degree Days19.7 (Base 18.3)
Averaged from 36 records on 22 February, 2013
WEATHER CONDITIONS BREAKOUT
WIND DIRECTION BREAKOUT
WEATHER BY HOUR - 22 FEBRUARY, 2013
[ °F ]   °C
Local TimeTemperatureDewpointHumidityBarometerVisibilityWind DirectionWind SpeedGust SpeedPrecipitationEventsConditions
1:11 AM1 °C-1 °C87 %1009.8 hPa6.4 kmSSE (150°)11.1 km/h0 mmSnowLight Snow
1:18 AM1 °C-1 °C87 %1009.8 hPa8 kmSE (140°)13 km/h0 mmSnowLight Snow
1:51 AM0.6 °C-1.1 °C89 %1010.8 hPa8 kmSouth (180°)9.3 km/h0 mmSnowLight Snow
2:35 AM1 °C-1 °C87 %1009.8 hPa6.4 kmSouth (190°)7.4 km/h0 mmSnowLight Snow
2:51 AM0.6 °C-0.6 °C92 %1010.8 hPa4.8 kmSouth (180°)5.6 km/h0 mmSnowLight Snow
3:40 AM1 °C-1 °C87 %1009.1 hPa6.4 kmSouth (180°)5.6 km/h0 mmOvercast
3:51 AM1.1 °C-0.6 °C89 %1010.5 hPa8 kmSouth (190°)5.6 km/h0 mmOvercast
4:51 AM1.1 °C-0.6 °C89 %1010.8 hPa14.5 kmSW (220°)13 km/hOvercast
5:51 AM1.1 °C-0.6 °C89 %1011.5 hPa12.9 kmSW (220°)13 km/h0 mmSnowLight Snow
6:06 AM1 °C-1 °C87 %1010.5 hPa14.5 kmSSW (210°)11.1 km/h0 mmSnowLight Snow
6:37 AM2 °C-1 °C81 %1010.8 hPa14.5 kmSSW (210°)13 km/h0 mmSnowLight Snow
6:51 AM1.7 °C-0.6 °C85 %1012.5 hPa14.5 kmSW (220°)13 km/h0 mmSnowLight Snow
7:15 AM2 °C-1 °C81 %1011.5 hPa14.5 kmSSW (210°)14.8 km/h0 mmSnowLight Snow
7:51 AM1.7 °C-1.1 °C82 %1012.9 hPa14.5 kmSSW (210°)11.1 km/h0 mmLight Drizzle
8:51 AM2.2 °C-1.1 °C79 %1013.9 hPa16.1 kmSSW (210°)13 km/h0 mmOvercast
9:51 AM2.2 °C-1.7 °C76 %1014.2 hPa16.1 kmWSW (240°)24.1 km/hOvercast
10:31 AM2 °C-2 °C75 %1013.9 hPa16.1 kmWSW (240°)22.2 km/hOvercast
10:51 AM1.7 °C-2.8 °C72 %1015.2 hPa16.1 kmWest (260°)24.1 km/hOvercast
11:51 AM1.1 °C-2.8 °C75 %1015.9 hPa16.1 kmWSW (250°)20.4 km/hOvercast
12:51 PM0.6 °C-3.3 °C75 %1015.9 hPa16.1 kmWest (260°)20.4 km/h38.9 km/hOvercast
1:43 PM1 °C-4 °C70 %1015.2 hPa16.1 kmWSW (250°)22.2 km/hOvercast
1:51 PM1.1 °C-4.4 °C67 %1016.3 hPa16.1 kmWSW (250°)24.1 km/hOvercast
2:31 PM1 °C-4 °C70 %1015.6 hPa16.1 kmWest (260°)20.4 km/hOvercast
2:51 PM1.1 °C-5 °C64 %1016.6 hPa16.1 kmWest (260°)24.1 km/h37 km/hOvercast
2:59 PM1 °C-5 °C65 %1015.6 hPa16.1 kmWest (270°)25.9 km/h35.2 km/hOvercast
3:40 PM1 °C-5 °C65 %1015.9 hPa16.1 kmWSW (250°)24.1 km/hMostly Cloudy
3:51 PM0.6 °C-5 °C66 %1016.9 hPa16.1 kmWest (270°)16.7 km/h33.3 km/hMostly Cloudy
3:58 PM1 °C-5 °C65 %1015.9 hPa16.1 kmWest (270°)25.9 km/h35.2 km/hMostly Cloudy
4:51 PM0.6 °C-6.1 °C61 %1016.9 hPa16.1 kmWest (280°)25.9 km/hPartly Cloudy
5:51 PM-1.1 °C-6.7 °C66 %1017.6 hPa16.1 kmWNW (290°)14.8 km/hPartly Cloudy
6:51 PM-1.7 °C-7.8 °C64 %1018.3 hPa16.1 kmWNW (300°)7.4 km/hPartly Cloudy
7:51 PM-2.8 °C-7.8 °C69 %1018.6 hPa16.1 kmNW (310°)9.3 km/hClear
8:51 PM-3.9 °C-8.3 °C72 %1019.3 hPa16.1 kmWNW (300°)5.6 km/hClear
9:51 PM-4.4 °C-8.9 °C71 %1019.6 hPa16.1 kmWest (280°)14.8 km/hClear
10:51 PM-4.4 °C-8.9 °C71 %1019.6 hPa16.1 kmWest (270°)9.3 km/hClear
11:51 PM-5 °C-8.9 °C74 %1019.3 hPa14.5 kmWest (270°)11.1 km/hPartly Cloudy
Hourly data recorded from KSTL, located 0 kilometers away from Chesterfield, Missouri







STORIES FROM OUR PARTNERS